St. Paul, MN

2:08 PM CST on January 18, 2018 (GMT -0600)
Saint Paul Downtown-Holman

Weather History for KSTP - December, 2012

Change the Weather History Date:

Sunday, December 30, 2012

  Actual Average Record
Temperature  
Mean Temperature 12 °F -  
Max Temperature 23 °F 23 °F 48 °F (2004)
Min Temperature 1 °F 9 °F -14 °F (2017)
Degree Days  
Heating Degree Days 53    
Moisture  
Dew Point 5 °F    
Average Humidity 81    
Maximum Humidity 92    
Minimum Humidity 68    
Precipitation  
Precipitation 0.00 in - - ()
Sea Level Pressure  
Sea Level Pressure 30.13 in    
Wind  
Wind Speed 5 mph (SSE)    
Max Wind Speed 10 mph    
Max Gust Speed -    
Visibility 6 miles    
Events      
Averages and records for this station are not official NWS values.
T = Trace of Precipitation, MM = Missing Value Source: NWS Daily Summary

Daily Weather History Graph

Daily Weather History Graph

Search for Another Location

Airport or City:

Trip Planner

Search our weather history database for the weather conditions in past years. The results will help you decide how hot, cold, wet, or windy it might be!

Date:

Astronomy

Dec. 30, 2012 Rise Set
Actual Time 7:50 AM CST 4:40 PM CST
Civil Twilight 7:16 AM CST 5:13 PM CST
Nautical Twilight 6:39 AM CST 5:50 PM CST
Astronomical Twilight 6:03 AM CST 6:26 PM CST
Moon 7:18 PM CST (12/30) 8:53 AM CST (12/30)
Length of Visible Light 9h 57m
Length of Day
8h 49m
Waning Gibbous, 95% of the Moon is Illuminated
Dec 30
Waning Gibbous
Jan 4
Last Quarter
Jan 11
New
Jan 18
First Quarter
Jan 26
Full

Hourly Weather History & Observations

Time (CST) Temp. Windchill Dew Point Humidity Pressure Visibility Wind Dir Wind Speed Gust Speed Precip Events Conditions
12:53 AM 5.0 °F -4.1 °F 1.0 °F 84% 30.22 in 6.0 mi WSW 4.6 mph - N/A   Partly Cloudy
1:06 AM 6.8 °F -2.0 °F 1.4 °F 79% 30.18 in 6.0 mi WSW 4.6 mph - N/A   Haze
1:53 AM 5.0 °F - 1.0 °F 84% 30.25 in 6.0 mi Calm Calm - N/A   Mostly Cloudy
2:04 AM 5.0 °F - -0.4 °F 78% 30.21 in 6.0 mi Calm Calm - N/A   Haze
2:53 AM 3.9 °F - -0.0 °F 84% 30.25 in 5.0 mi Calm Calm - N/A   Clear
3:53 AM 3.9 °F -3.4 °F -0.0 °F 84% 30.26 in 6.0 mi SSE 3.5 mph - N/A   Clear
4:53 AM 3.0 °F -6.4 °F -0.0 °F 87% 30.25 in 6.0 mi SSE 4.6 mph - N/A   Clear
5:53 AM 3.0 °F -4.4 °F -0.9 °F 84% 30.26 in 6.0 mi SSE 3.5 mph - N/A   Clear
6:53 AM 1.9 °F -7.6 °F -0.9 °F 88% 30.25 in 4.0 mi SSE 4.6 mph - N/A   Clear
7:23 AM 1.4 °F -12.5 °F -0.4 °F 92% 30.19 in 5.0 mi SE 8.1 mph - N/A   Scattered Clouds
7:32 AM 1.4 °F -13.5 °F -0.4 °F 92% 30.18 in 5.0 mi SSE 9.2 mph - N/A   Mostly Cloudy
7:53 AM 1.9 °F -11.8 °F -0.9 °F 88% 30.24 in 3.0 mi SSE 8.1 mph - N/A   Overcast
8:13 AM 1.4 °F -11.3 °F -2.2 °F 85% 30.19 in 3.0 mi SSE 6.9 mph - N/A   Scattered Clouds
8:53 AM 3.0 °F -9.3 °F -0.9 °F 84% 30.24 in 4.0 mi SE 6.9 mph - N/A   Clear
9:53 AM 5.0 °F -6.9 °F 1.0 °F 84% 30.23 in 4.0 mi SE 6.9 mph - N/A   Clear
10:53 AM 8.1 °F -4.3 °F 3.0 °F 80% 30.21 in 7.0 mi SE 8.1 mph - N/A   Clear
11:53 AM 10.9 °F -1.8 °F 5.0 °F 77% 30.16 in 6.0 mi SE 9.2 mph - N/A   Haze
12:53 PM 14.0 °F 3.9 °F 7.0 °F 74% 30.10 in 7.0 mi SE 6.9 mph - N/A   Clear
1:53 PM 17.1 °F 6.6 °F 10.0 °F 74% 30.06 in 8.0 mi SSE 8.1 mph - N/A   Clear
2:53 PM 19.9 °F 10.1 °F 10.9 °F 68% 30.00 in 9.0 mi ESE 8.1 mph - N/A   Clear
3:53 PM 23.0 °F 12.4 °F 14.0 °F 68% 29.97 in 10.0 mi SE 10.4 mph - N/A   Clear
4:53 PM 21.0 °F 11.4 °F 14.0 °F 74% 29.97 in 9.0 mi SSE 8.1 mph - N/A   Clear
5:53 PM 19.0 °F 10.0 °F 12.9 °F 77% 29.97 in 9.0 mi SSE 6.9 mph - N/A   Clear
6:53 PM 19.0 °F 13.9 °F 12.0 °F 74% 29.96 in 8.0 mi SSE 3.5 mph - N/A   Clear
7:53 PM 19.9 °F 13.4 °F 15.1 °F 81% 29.95 in 8.0 mi SE 4.6 mph - N/A   Clear
8:53 PM 19.0 °F 13.9 °F 14.0 °F 81% 29.95 in 7.0 mi ESE 3.5 mph - N/A   Clear
9:53 PM 15.1 °F - 12.0 °F 88% 29.95 in 5.0 mi Calm Calm - N/A   Clear
10:53 PM 19.9 °F 11.1 °F 15.1 °F 81% 29.98 in 7.0 mi West 6.9 mph - N/A   Clear
11:53 PM 18.0 °F 7.7 °F 10.9 °F 74% 30.01 in 8.0 mi West 8.1 mph - N/A   Clear